This demonstration page uses our WeatherBlox Daily Observations layout. Learn more.

Left ArrowRight Arrow

41.86663, -103.66717

Hourly Observations for November 21, 2020

Temp ( °F °C ) Dew Point ( °F °C ) Humidity (%) Winds ( mph kmh ) Pressure ( in mb ) Visibility ( mi km ) Precip ( " mm )
12:53 am 00:53 Clear 24 -4.4 17 -8.3 75 75 E 3 6 30.48 1032 10 16 0.00 0.00
1:53 am 01:53 Clear 26 -3.3 17 -8.3 69 69 Calm 30.45 1031 10 16 0.00 0.00
2:53 am 02:53 Clear 23 -5 16 -8.9 74 74 ENE 3 6 30.46 1031 10 16 0.00 0.00
3:53 am 03:53 Clear 24 -4.4 17 -8.3 75 75 Calm 30.42 1030 10 16 0.00 0.00
4:53 am 04:53 Clear 19 -7.2 13 -10.6 77 77 Calm 30.45 1031 10 16 0.00 0.00
5:53 am 05:53 Clear 21 -6.1 15 -9.4 78 78 E 3 6 30.43 1031 10 16 0.00 0.00
6:53 am 06:53 Sunny 19 -7.2 14 -10 81 81 Calm 30.43 1031 10 16 0.00 0.00
7:53 am 07:53 Sunny 25 -3.9 20 -6.7 81 81 Calm 30.41 1030 10 16 0.00 0.00
8:53 am 08:53 Sunny 30 -1.1 22 -5.6 72 72 Calm 30.42 1030 10 16 0.00 0.00
9:53 am 09:53 Sunny 35 1.7 23 -5 61 61 ESE 5 7 30.39 1029 10 16 0.00 0.00
10:53 am 10:53 Sunny 41 5 23 -5 49 49 SSE 6 9 30.36 1028 10 16 0.00 0.00
11:53 am 11:53 Sunny 46 7.8 24 -4.4 42 42 Calm 30.31 1026 10 16 0.00 0.00
12:53 pm 12:53 Sunny 49 9.4 24 -4.4 38 38 WSW 6 9 30.27 1025 10 16 0.00 0.00
1:53 pm 13:53 Sunny 52 11.1 20 -6.7 28 28 W 8 13 30.24 1024 10 16 0.00 0.00
2:53 pm 14:53 Sunny 52 11.1 18 -7.8 26 26 NW 9 15 30.25 1024 10 16 0.00 0.00
3:53 pm 15:53 Sunny 50 10 14 -10 24 24 NW 8 13 30.26 1025 10 16 0.00 0.00
4:53 pm 16:53 Clear 38 3.3 10 -12.2 31 31 NNW 8 13 30.33 1027 10 16 0.00 0.00
5:53 pm 17:53 Clear 32 0 8 -13.3 36 36 N 6 9 30.38 1029 10 16 0.00 0.00
6:53 pm 18:53 Clear 31 -0.6 6 -14.4 35 35 Calm 30.41 1030 10 16 0.00 0.00
7:53 pm 19:53 Clear 27 -2.8 7 -13.9 43 43 NNW 6 9 30.41 1030 10 16 0.00 0.00
8:53 pm 20:53 Clear 26 -3.3 7 -13.9 44 44 NW 6 9 30.43 1031 10 16 0.00 0.00
9:53 pm 21:53 Clear 24 -4.4 6 -14.4 46 46 NW 6 9 30.45 1031 10 16 0.00 0.00
10:53 pm 22:53 Clear 23 -5 8 -13.3 53 53 NW 8 13 30.48 1032 10 16 0.00 0.00
11:53 pm 23:53 Clear 21 -6.1 7 -13.9 54 54 NW 7 11 30.49 1032 10 16 0.00 0.00

Powered by AerisWeather